ETD594 LLBG-OMAA

Flight info

Callsign ETD594
Flight time 3h 14m
Altitude 36000
Route SUVAS L53 STEPA/N0489F370 N71 LAKTO N307 MELDO A16 CVO L315 HGD M872 BDB Y214 RAPMA DCT KUVSO DCT KATIT DCT PEKEM M628 RIGIL G783 VAVIM P899 ROVOS
Aircraft B77W/H-SDE1E2E3FGHIJ2J3J4J5M1RWXY/LB1D1

Departure

Time 2026-05-05 10:35
Airport Ben Gurion International Airport (LLBG)

Arrival

Time 2026-05-05 13:49
Airport Zayed International Airport (OMAA)
Time Latitude Longitude Altitude Speed Heading
2026-05-05 10:14 32.00604 34.87505 125 ft 0 kts 243°
2026-05-05 10:14 32.00604 34.87502 125 ft 0 kts 243°
2026-05-05 10:24 32.00604 34.87504 125 ft 1 kts 243°
2026-05-05 10:24 32.00612 34.87522 120 ft 3 kts 244°
2026-05-05 10:25 32.00621 34.87543 120 ft 3 kts 242°
2026-05-05 10:25 32.00629 34.87560 120 ft 3 kts 222°
2026-05-05 10:25 32.00639 34.87569 120 ft 3 kts 190°
2026-05-05 10:25 32.00648 34.87571 120 ft 3 kts 152°
2026-05-05 10:26 32.00658 34.87563 120 ft 2 kts 123°
2026-05-05 10:26 32.00660 34.87560 120 ft 1 kts 120°
2026-05-05 10:26 32.00651 34.87576 120 ft 3 kts 123°
2026-05-05 10:26 32.00640 34.87596 120 ft 3 kts 122°
2026-05-05 10:27 32.00634 34.87608 121 ft 0 kts 121°
2026-05-05 10:28 32.00631 34.87613 121 ft 3 kts 121°
2026-05-05 10:29 32.00585 34.87702 120 ft 16 kts 121°
2026-05-05 10:29 32.00532 34.87805 120 ft 11 kts 121°
2026-05-05 10:29 32.00547 34.87888 120 ft 12 kts 43°
2026-05-05 10:29 32.00602 34.87930 119 ft 8 kts 31°
2026-05-05 10:30 32.00652 34.87965 120 ft 12 kts 31°
2026-05-05 10:30 32.00786 34.88061 122 ft 28 kts 31°
2026-05-05 10:30 32.00950 34.88179 121 ft 28 kts 31°
2026-05-05 10:30 32.01115 34.88296 120 ft 28 kts 32°
2026-05-05 10:31 32.01276 34.88419 121 ft 28 kts 41°
2026-05-05 10:31 32.01404 34.88586 119 ft 28 kts 53°
2026-05-05 10:31 32.01485 34.88790 122 ft 28 kts 74°
2026-05-05 10:31 32.01522 34.89011 122 ft 28 kts 79°
2026-05-05 10:32 32.01557 34.89234 122 ft 28 kts 79°
2026-05-05 10:32 32.01592 34.89453 120 ft 28 kts 79°
2026-05-05 10:32 32.01616 34.89611 121 ft 16 kts 80°
2026-05-05 10:32 32.01658 34.89686 120 ft 11 kts 39°
2026-05-05 10:33 32.01723 34.89734 119 ft 11 kts 29°
2026-05-05 10:33 32.01796 34.89774 122 ft 12 kts 10°
2026-05-05 10:33 32.01843 34.89732 119 ft 9 kts 265°
2026-05-05 10:33 32.01832 34.89655 118 ft 10 kts 256°
2026-05-05 10:34 32.01814 34.89526 121 ft 39 kts 260°
2026-05-05 10:34 32.01715 34.88895 125 ft 115 kts 259°
2026-05-05 10:34 32.01534 34.87723 170 ft 169 kts 259°
2026-05-05 10:34 32.01287 34.86296 646 ft 184 kts 258°
2026-05-05 10:35 32.01013 34.84801 1303 ft 194 kts 257°
2026-05-05 10:35 32.00723 34.83269 2221 ft 186 kts 257°
2026-05-05 10:35 32.00416 34.81722 2720 ft 205 kts 257°
2026-05-05 10:35 32.00062 34.79998 3141 ft 228 kts 256°
2026-05-05 10:36 31.99680 34.78164 3937 ft 232 kts 257°
2026-05-05 10:36 31.99296 34.76294 4790 ft 232 kts 260°
2026-05-05 10:36 31.99377 34.74431 5528 ft 235 kts 283°
2026-05-05 10:36 31.99844 34.72568 6231 ft 239 kts 282°
2026-05-05 10:37 31.99812 34.70591 6824 ft 246 kts 249°
2026-05-05 10:37 31.98844 34.68962 7613 ft 252 kts 223°
2026-05-05 10:37 31.97326 34.67867 8337 ft 262 kts 204°
2026-05-05 10:37 31.95489 34.67418 8969 ft 276 kts 191°
2026-05-05 10:38 31.93536 34.67216 9644 ft 286 kts 189°
2026-05-05 10:38 31.91532 34.67052 10346 ft 293 kts 189°
2026-05-05 10:38 31.89424 34.66881 10648 ft 316 kts 189°
2026-05-05 10:38 31.87136 34.66688 10852 ft 343 kts 188°
2026-05-05 10:39 31.84666 34.66473 11133 ft 367 kts 188°
2026-05-05 10:39 31.82083 34.66249 11886 ft 377 kts 189°
2026-05-05 10:39 31.79440 34.66017 12771 ft 384 kts 189°
2026-05-05 10:39 31.76757 34.65777 13775 ft 389 kts 190°
2026-05-05 10:40 31.74033 34.65527 14671 ft 395 kts 190°
2026-05-05 10:40 31.71271 34.65271 15545 ft 401 kts 190°
2026-05-05 10:40 31.68469 34.65009 16423 ft 407 kts 190°
2026-05-05 10:40 31.65625 34.64742 17265 ft 413 kts 190°
2026-05-05 10:41 31.62734 34.64470 18123 ft 419 kts 190°
2026-05-05 10:41 31.59811 34.64194 18891 ft 424 kts 190°
2026-05-05 10:41 31.56893 34.63921 19673 ft 428 kts 190°
2026-05-05 10:41 31.53916 34.63642 20474 ft 431 kts 189°
2026-05-05 10:42 31.47882 34.63075 21991 ft 439 kts 189°
2026-05-05 10:42 31.44819 34.62787 22737 ft 443 kts 189°
2026-05-05 10:42 31.41731 34.62496 23477 ft 447 kts 189°
2026-05-05 10:43 31.38621 34.62205 24111 ft 450 kts 190°
2026-05-05 10:43 31.35483 34.61910 24740 ft 453 kts 190°
2026-05-05 10:43 31.32335 34.61615 25350 ft 456 kts 191°
2026-05-05 10:43 31.29162 34.61318 25949 ft 458 kts 191°
2026-05-05 10:44 31.25976 34.61020 26532 ft 461 kts 191°
2026-05-05 10:44 31.22765 34.60719 27106 ft 464 kts 191°
2026-05-05 10:44 31.19527 34.60416 27647 ft 467 kts 192°
2026-05-05 10:44 31.16278 34.60111 28175 ft 470 kts 192°
2026-05-05 10:45 31.13001 34.59805 28683 ft 473 kts 192°
2026-05-05 10:45 31.09750 34.59502 29147 ft 475 kts 192°
2026-05-05 10:45 31.06443 34.59193 29577 ft 478 kts 192°
2026-05-05 10:45 31.03119 34.58883 29986 ft 481 kts 192°
2026-05-05 10:46 30.99776 34.58572 30388 ft 482 kts 193°
2026-05-05 10:46 30.96438 34.58264 30871 ft 480 kts 193°
2026-05-05 10:46 30.93116 34.57960 31400 ft 477 kts 193°
2026-05-05 10:46 30.89806 34.57656 31924 ft 475 kts 193°
2026-05-05 10:47 30.86520 34.57353 32394 ft 473 kts 194°
2026-05-05 10:47 30.83241 34.57050 32865 ft 472 kts 194°
2026-05-05 10:47 30.79973 34.56747 33337 ft 470 kts 194°
2026-05-05 10:47 30.76722 34.56445 33804 ft 468 kts 194°
2026-05-05 10:48 30.73471 34.56144 34278 ft 466 kts 194°
2026-05-05 10:48 30.70249 34.55846 34635 ft 464 kts 194°
2026-05-05 10:48 30.67030 34.55546 34958 ft 464 kts 194°
2026-05-05 10:48 30.63814 34.55247 35313 ft 462 kts 195°
2026-05-05 10:49 30.60647 34.54955 35645 ft 461 kts 195°
2026-05-05 10:49 30.57448 34.54661 35944 ft 460 kts 195°
2026-05-05 10:49 30.54252 34.54365 36263 ft 459 kts 195°
2026-05-05 10:49 30.51066 34.54072 36588 ft 458 kts 195°
2026-05-05 10:50 30.47892 34.53779 36872 ft 458 kts 195°
2026-05-05 10:50 30.44707 34.53482 36988 ft 461 kts 195°
2026-05-05 10:50 30.41499 34.53183 37039 ft 463 kts 195°
2026-05-05 10:51 30.35104 34.52599 37046 ft 457 kts 195°
2026-05-05 10:51 30.28793 34.52025 37054 ft 454 kts 195°
2026-05-05 10:52 30.22531 34.51449 37055 ft 454 kts 195°
2026-05-05 10:52 30.16220 34.50868 37074 ft 455 kts 195°
2026-05-05 10:53 30.09909 34.50289 37065 ft 456 kts 195°
2026-05-05 10:53 30.03577 34.49710 37059 ft 456 kts 195°
2026-05-05 10:54 29.97238 34.49132 37053 ft 457 kts 194°
2026-05-05 10:54 29.90895 34.48555 37053 ft 457 kts 195°
2026-05-05 10:55 29.85617 34.48074 37058 ft 458 kts 194°
2026-05-05 10:55 29.79265 34.47497 37063 ft 458 kts 194°
2026-05-05 10:56 29.72908 34.46920 37060 ft 458 kts 194°
2026-05-05 10:56 29.66553 34.46344 37063 ft 458 kts 194°
2026-05-05 10:57 29.60194 34.45769 37064 ft 458 kts 194°
2026-05-05 10:57 29.53877 34.45197 37058 ft 458 kts 194°
2026-05-05 10:58 29.47519 34.44623 37051 ft 459 kts 194°
2026-05-05 10:58 29.41154 34.44050 37046 ft 458 kts 194°
2026-05-05 10:58 29.37936 34.44176 37044 ft 475 kts 178°
2026-05-05 10:59 29.34708 34.45313 37056 ft 493 kts 166°
2026-05-05 10:59 29.31627 34.47144 37055 ft 507 kts 156°
2026-05-05 10:59 29.28846 34.49725 37042 ft 521 kts 143°
2026-05-05 11:00 29.23795 34.55725 37033 ft 525 kts 141°
2026-05-05 11:00 29.18771 34.61812 37021 ft 526 kts 141°
2026-05-05 11:01 29.13725 34.67792 36989 ft 525 kts 142°
2026-05-05 11:01 29.08614 34.73755 37016 ft 525 kts 143°
2026-05-05 11:02 29.03484 34.79704 37026 ft 525 kts 143°
2026-05-05 11:02 28.98348 34.85655 37021 ft 526 kts 143°
2026-05-05 11:03 28.93217 34.91600 37014 ft 526 kts 143°
2026-05-05 11:03 28.88077 34.97547 37005 ft 526 kts 143°
2026-05-05 11:04 28.82934 35.03493 36987 ft 526 kts 143°
2026-05-05 11:04 28.77792 35.09427 36991 ft 525 kts 143°
2026-05-05 11:05 28.72665 35.15333 36986 ft 523 kts 143°
2026-05-05 11:05 28.67548 35.21220 36977 ft 522 kts 143°
2026-05-05 11:06 28.62442 35.27084 36973 ft 521 kts 143°
2026-05-05 11:06 28.57366 35.32904 36978 ft 521 kts 143°
2026-05-05 11:07 28.52263 35.38748 36992 ft 520 kts 143°
2026-05-05 11:07 28.47166 35.44580 36966 ft 518 kts 143°
2026-05-05 11:08 28.42095 35.50372 36959 ft 515 kts 143°
2026-05-05 11:08 28.37048 35.56130 36959 ft 513 kts 143°
2026-05-05 11:09 28.32007 35.61869 36947 ft 512 kts 143°
2026-05-05 11:09 28.27014 35.67545 36947 ft 511 kts 143°
2026-05-05 11:10 28.21990 35.73247 36939 ft 511 kts 143°
2026-05-05 11:10 28.16971 35.78940 36954 ft 510 kts 143°
2026-05-05 11:11 28.11947 35.84626 36954 ft 511 kts 143°
2026-05-05 11:11 28.06908 35.90321 36954 ft 512 kts 144°
2026-05-05 11:12 28.01851 35.96031 36954 ft 514 kts 144°
2026-05-05 11:12 27.96780 36.01748 36952 ft 515 kts 144°
2026-05-05 11:13 27.91699 36.07469 36949 ft 516 kts 144°
2026-05-05 11:13 27.86605 36.13198 36952 ft 516 kts 144°
2026-05-05 11:14 27.81514 36.18916 36950 ft 516 kts 144°
2026-05-05 11:14 27.76412 36.24637 36939 ft 516 kts 144°
2026-05-05 11:15 27.71355 36.30300 36939 ft 515 kts 144°
2026-05-05 11:15 27.66277 36.35979 36944 ft 513 kts 144°
2026-05-05 11:16 27.61204 36.41643 36947 ft 513 kts 144°
2026-05-05 11:16 27.56132 36.47296 36942 ft 512 kts 144°
2026-05-05 11:17 27.51070 36.52933 36956 ft 511 kts 144°
2026-05-05 11:17 27.46010 36.58559 36952 ft 511 kts 144°
2026-05-05 11:18 27.40946 36.64183 36960 ft 511 kts 144°
2026-05-05 11:18 27.35882 36.69798 36945 ft 511 kts 144°
2026-05-05 11:19 27.30826 36.75397 36958 ft 510 kts 144°
2026-05-05 11:19 27.25763 36.80997 36957 ft 510 kts 144°
2026-05-05 11:20 27.20707 36.86582 36966 ft 510 kts 144°
2026-05-05 11:20 27.15643 36.92166 36964 ft 510 kts 144°
2026-05-05 11:21 27.10583 36.97738 36968 ft 510 kts 145°
2026-05-05 11:21 27.05555 37.03270 36969 ft 509 kts 145°
2026-05-05 11:22 27.00489 37.08835 36967 ft 509 kts 145°
2026-05-05 11:22 26.95435 37.14381 36971 ft 509 kts 145°
2026-05-05 11:23 26.90367 37.19933 36964 ft 509 kts 145°
2026-05-05 11:23 26.85298 37.25478 36985 ft 509 kts 145°
2026-05-05 11:24 26.80261 37.30983 36979 ft 509 kts 145°
2026-05-05 11:24 26.75187 37.36520 36978 ft 509 kts 145°
2026-05-05 11:25 26.70119 37.42046 36974 ft 509 kts 145°
2026-05-05 11:25 26.65046 37.47566 36957 ft 509 kts 145°
2026-05-05 11:26 26.59980 37.53070 36964 ft 507 kts 145°
2026-05-05 11:26 26.54913 37.58571 36951 ft 508 kts 145°
2026-05-05 11:27 26.49841 37.64068 36953 ft 509 kts 145°
2026-05-05 11:27 26.44756 37.69577 36947 ft 510 kts 145°
2026-05-05 11:28 26.39656 37.75093 36949 ft 510 kts 146°
2026-05-05 11:28 26.34553 37.80605 36935 ft 511 kts 146°
2026-05-05 11:29 26.29437 37.86119 36938 ft 512 kts 146°
2026-05-05 11:29 26.24346 37.91604 36930 ft 512 kts 145°
2026-05-05 11:30 26.19234 37.97106 36929 ft 511 kts 146°
2026-05-05 11:30 26.14112 38.02611 36927 ft 511 kts 146°
2026-05-05 11:31 26.09001 38.08095 36920 ft 510 kts 146°
2026-05-05 11:31 26.03888 38.13573 36924 ft 511 kts 146°
2026-05-05 11:32 25.98782 38.19037 36908 ft 510 kts 146°
2026-05-05 11:32 25.93667 38.24505 36903 ft 511 kts 146°
2026-05-05 11:33 25.88531 38.29986 36903 ft 512 kts 146°
2026-05-05 11:33 25.83394 38.35463 36908 ft 512 kts 146°
2026-05-05 11:34 25.78249 38.40943 36912 ft 512 kts 146°
2026-05-05 11:34 25.73151 38.46368 36913 ft 511 kts 146°
2026-05-05 11:35 25.68018 38.51822 36913 ft 510 kts 146°
2026-05-05 11:35 25.62897 38.57254 36914 ft 509 kts 146°
2026-05-05 11:36 25.57782 38.62673 36908 ft 508 kts 146°
2026-05-05 11:36 25.52670 38.68083 36918 ft 508 kts 146°
2026-05-05 11:37 25.47562 38.73481 36917 ft 507 kts 146°
2026-05-05 11:37 25.42487 38.78837 36927 ft 507 kts 146°
2026-05-05 11:38 25.37369 38.84232 36948 ft 508 kts 146°
2026-05-05 11:38 25.32242 38.89631 36942 ft 508 kts 146°
2026-05-05 11:39 25.27115 38.95022 36944 ft 509 kts 146°
2026-05-05 11:39 25.21981 39.00417 36935 ft 509 kts 146°
2026-05-05 11:40 25.16839 39.05810 36933 ft 509 kts 146°
2026-05-05 11:40 25.11701 39.11196 36933 ft 510 kts 146°
2026-05-05 11:41 25.06557 39.16581 36929 ft 510 kts 146°
2026-05-05 11:41 25.01410 39.21960 36929 ft 510 kts 146°
2026-05-05 11:42 24.96252 39.27345 36935 ft 511 kts 146°
2026-05-05 11:42 24.91091 39.32726 36939 ft 511 kts 146°
2026-05-05 11:43 24.85946 39.38084 36920 ft 513 kts 146°
2026-05-05 11:43 24.80762 39.43478 36919 ft 513 kts 146°
2026-05-05 11:44 24.76414 39.47999 36925 ft 513 kts 146°
2026-05-05 11:44 24.71216 39.53393 36916 ft 514 kts 146°
2026-05-05 11:45 24.66009 39.58794 36916 ft 514 kts 146°
2026-05-05 11:45 24.60807 39.64183 36899 ft 514 kts 146°
2026-05-05 11:46 24.56107 39.70105 36915 ft 534 kts 127°
2026-05-05 11:46 24.54541 39.73860 36911 ft 548 kts 115°
2026-05-05 11:46 24.53698 39.77981 36902 ft 558 kts 102°
2026-05-05 11:47 24.52990 39.86497 36918 ft 560 kts 99°
2026-05-05 11:47 24.52331 39.95012 36923 ft 559 kts 100°
2026-05-05 11:48 24.51137 40.07756 36916 ft 559 kts 101°
2026-05-05 11:48 24.50292 40.16243 36912 ft 558 kts 101°
2026-05-05 11:49 24.49459 40.24660 36909 ft 558 kts 101°
2026-05-05 11:49 24.48624 40.33125 36906 ft 558 kts 101°
2026-05-05 11:50 24.47786 40.41585 36899 ft 558 kts 101°
2026-05-05 11:50 24.46941 40.50048 36901 ft 557 kts 101°
2026-05-05 11:51 24.46093 40.58497 36895 ft 557 kts 101°
2026-05-05 11:51 24.45242 40.66946 36896 ft 557 kts 102°
2026-05-05 11:52 24.44395 40.75389 36913 ft 556 kts 101°
2026-05-05 11:52 24.43543 40.83832 36900 ft 556 kts 102°
2026-05-05 11:53 24.42687 40.92264 36921 ft 556 kts 102°
2026-05-05 11:53 24.41833 41.00632 36926 ft 555 kts 102°
2026-05-05 11:54 24.40968 41.09046 36928 ft 555 kts 102°
2026-05-05 11:54 24.40085 41.17458 36912 ft 555 kts 102°
2026-05-05 11:55 24.39193 41.25866 36925 ft 554 kts 102°
2026-05-05 11:55 24.38300 41.34266 36930 ft 554 kts 102°
2026-05-05 11:56 24.37402 41.42677 36933 ft 555 kts 102°
2026-05-05 11:56 24.36502 41.51075 36930 ft 554 kts 102°
2026-05-05 11:57 24.35596 41.59475 36938 ft 554 kts 102°
2026-05-05 11:57 24.34692 41.67813 36937 ft 554 kts 102°
2026-05-05 11:58 24.33780 41.76193 36940 ft 553 kts 102°
2026-05-05 11:58 24.32626 41.84498 36939 ft 547 kts 109°
2026-05-05 11:59 24.30567 41.92464 36945 ft 542 kts 113°
2026-05-05 11:59 24.28398 42.00382 36943 ft 542 kts 113°
2026-05-05 12:00 24.26268 42.08309 36946 ft 542 kts 112°
2026-05-05 12:00 24.24169 42.16245 36946 ft 542 kts 112°
2026-05-05 12:01 24.22071 42.24188 36951 ft 542 kts 112°
2026-05-05 12:01 24.19967 42.32119 36952 ft 542 kts 112°
2026-05-05 12:02 24.17859 42.40038 36953 ft 542 kts 112°
2026-05-05 12:02 24.15759 42.47905 36954 ft 541 kts 112°
2026-05-05 12:03 24.13644 42.55813 36958 ft 540 kts 112°
2026-05-05 12:03 24.11532 42.63693 36956 ft 540 kts 112°
2026-05-05 12:04 24.09408 42.71599 36970 ft 540 kts 112°
2026-05-05 12:04 24.07288 42.79475 36968 ft 540 kts 112°
2026-05-05 12:05 24.05162 42.87359 36971 ft 540 kts 112°
2026-05-05 12:05 24.03033 42.95235 36974 ft 540 kts 112°
2026-05-05 12:06 24.00903 43.03107 36973 ft 540 kts 112°
2026-05-05 12:06 23.98772 43.10972 36975 ft 539 kts 112°
2026-05-05 12:07 23.96636 43.18835 36978 ft 539 kts 112°
2026-05-05 12:07 23.94495 43.26702 36974 ft 539 kts 112°
2026-05-05 12:08 23.92349 43.34567 36974 ft 540 kts 112°
2026-05-05 12:08 23.90214 43.42375 36969 ft 540 kts 112°
2026-05-05 12:09 23.88057 43.50245 36964 ft 540 kts 112°
2026-05-05 12:09 23.85898 43.58109 36950 ft 540 kts 112°
2026-05-05 12:10 23.83735 43.65969 36947 ft 540 kts 112°
2026-05-05 12:10 23.81570 43.73823 36936 ft 540 kts 112°
2026-05-05 12:11 23.79405 43.81661 36922 ft 539 kts 112°
2026-05-05 12:11 23.77457 43.89595 36920 ft 543 kts 105°
2026-05-05 12:12 23.76604 43.97830 36913 ft 547 kts 98°
2026-05-05 12:12 23.76076 44.06058 36900 ft 547 kts 98°
2026-05-05 12:13 23.75509 44.14337 36895 ft 546 kts 98°
2026-05-05 12:13 23.74892 44.22595 36898 ft 545 kts 98°
2026-05-05 12:14 23.74259 44.30835 36899 ft 545 kts 98°
2026-05-05 12:14 23.73625 44.39077 36902 ft 544 kts 98°
2026-05-05 12:15 23.72991 44.47301 36901 ft 544 kts 98°
2026-05-05 12:15 23.72354 44.55516 36897 ft 543 kts 98°
2026-05-05 12:16 23.71714 44.63723 36894 ft 542 kts 98°
2026-05-05 12:16 23.71069 44.71913 36889 ft 541 kts 98°
2026-05-05 12:17 23.70422 44.80095 36891 ft 541 kts 98°
2026-05-05 12:17 23.69775 44.88215 36883 ft 540 kts 98°
2026-05-05 12:18 23.69113 44.96427 36877 ft 540 kts 98°
2026-05-05 12:18 23.68456 45.04526 36872 ft 540 kts 98°
2026-05-05 12:19 23.67791 45.12682 36864 ft 540 kts 98°
2026-05-05 12:19 23.67121 45.20845 36855 ft 540 kts 98°
2026-05-05 12:20 23.66448 45.29009 36851 ft 540 kts 98°
2026-05-05 12:20 23.65773 45.37165 36849 ft 540 kts 98°
2026-05-05 12:21 23.65094 45.45324 36836 ft 540 kts 98°
2026-05-05 12:21 23.64411 45.53475 36823 ft 540 kts 98°
2026-05-05 12:22 23.63725 45.61629 36828 ft 539 kts 98°
2026-05-05 12:22 23.63035 45.69763 36815 ft 539 kts 98°
2026-05-05 12:23 23.62347 45.77837 36812 ft 538 kts 98°
2026-05-05 12:23 23.61652 45.85951 36814 ft 537 kts 98°
2026-05-05 12:24 23.60953 45.94060 36818 ft 537 kts 98°
2026-05-05 12:24 23.60251 46.02159 36818 ft 536 kts 98°
2026-05-05 12:25 23.59545 46.10253 36823 ft 536 kts 98°
2026-05-05 12:25 23.58834 46.18355 36836 ft 537 kts 98°
2026-05-05 12:26 23.58118 46.26459 36826 ft 537 kts 99°
2026-05-05 12:26 23.57399 46.34558 36831 ft 537 kts 99°
2026-05-05 12:27 23.56675 46.42658 36834 ft 537 kts 99°
2026-05-05 12:27 23.55948 46.50765 36826 ft 537 kts 99°
2026-05-05 12:28 23.55210 46.58867 36830 ft 536 kts 99°
2026-05-05 12:28 23.54464 46.66950 36826 ft 536 kts 99°
2026-05-05 12:29 23.53714 46.75023 36817 ft 536 kts 99°
2026-05-05 12:29 23.53088 46.81736 36809 ft 535 kts 99°
2026-05-05 12:30 23.52210 46.91113 36799 ft 535 kts 99°
2026-05-05 12:30 23.51574 46.97865 36802 ft 534 kts 99°
2026-05-05 12:31 23.50813 47.05916 36800 ft 534 kts 99°
2026-05-05 12:31 23.50051 47.13917 36802 ft 534 kts 99°
2026-05-05 12:32 23.49281 47.21962 36787 ft 534 kts 99°
2026-05-05 12:32 23.48508 47.30003 36791 ft 533 kts 99°
2026-05-05 12:33 23.47755 47.37787 36787 ft 533 kts 99°
2026-05-05 12:33 23.46975 47.45815 36783 ft 532 kts 99°
2026-05-05 12:34 23.46192 47.53831 36778 ft 532 kts 99°
2026-05-05 12:34 23.45412 47.61838 36781 ft 531 kts 99°
2026-05-05 12:35 23.44632 47.69830 36768 ft 530 kts 99°
2026-05-05 12:35 23.43848 47.77817 36767 ft 530 kts 99°
2026-05-05 12:36 23.43060 47.85793 36758 ft 529 kts 99°
2026-05-05 12:36 23.42269 47.93752 36754 ft 529 kts 99°
2026-05-05 12:37 23.41474 48.01712 36749 ft 528 kts 99°
2026-05-05 12:37 23.40676 48.09669 36745 ft 528 kts 99°
2026-05-05 12:38 23.39880 48.17564 36738 ft 528 kts 99°
2026-05-05 12:38 23.39076 48.25502 36737 ft 527 kts 99°
2026-05-05 12:39 23.38271 48.33444 36725 ft 528 kts 98°
2026-05-05 12:39 23.37832 48.41421 36730 ft 528 kts 95°
2026-05-05 12:40 23.37560 48.49419 36723 ft 529 kts 94°
2026-05-05 12:40 23.37271 48.57417 36720 ft 528 kts 95°
2026-05-05 12:41 23.36948 48.65409 36736 ft 528 kts 95°
2026-05-05 12:41 23.36614 48.73389 36717 ft 528 kts 95°
2026-05-05 12:42 23.36278 48.81367 36713 ft 528 kts 95°
2026-05-05 12:42 23.35940 48.89348 36727 ft 527 kts 95°
2026-05-05 12:43 23.35599 48.97315 36720 ft 527 kts 95°
2026-05-05 12:43 23.35252 49.05225 36719 ft 526 kts 96°
2026-05-05 12:44 23.34363 49.13111 36720 ft 523 kts 102°
2026-05-05 12:44 23.33188 49.20931 36716 ft 523 kts 102°
2026-05-05 12:45 23.32011 49.28751 36721 ft 524 kts 102°
2026-05-05 12:45 23.30864 49.36589 36715 ft 524 kts 101°
2026-05-05 12:46 23.29730 49.44421 36707 ft 524 kts 101°
2026-05-05 12:46 23.28594 49.52250 36709 ft 524 kts 101°
2026-05-05 12:47 23.27453 49.60077 36714 ft 524 kts 101°
2026-05-05 12:47 23.26307 49.67897 36717 ft 524 kts 101°
2026-05-05 12:48 23.25163 49.75668 36712 ft 524 kts 101°
2026-05-05 12:48 23.24009 49.83480 36711 ft 524 kts 101°
2026-05-05 12:49 23.22851 49.91301 36721 ft 523 kts 101°
2026-05-05 12:49 23.21689 49.99119 36720 ft 523 kts 101°
2026-05-05 12:50 23.20524 50.06926 36717 ft 523 kts 101°
2026-05-05 12:50 23.19354 50.14742 36718 ft 523 kts 101°
2026-05-05 12:51 23.18183 50.22537 36718 ft 522 kts 101°
2026-05-05 12:51 23.17009 50.30324 36716 ft 522 kts 101°
2026-05-05 12:52 23.15839 50.38056 36720 ft 521 kts 101°
2026-05-05 12:52 23.14659 50.45831 36721 ft 521 kts 101°
2026-05-05 12:53 23.13476 50.53603 36722 ft 521 kts 101°
2026-05-05 12:53 23.12289 50.61370 36719 ft 521 kts 101°
2026-05-05 12:54 23.10501 50.73017 36715 ft 521 kts 101°
2026-05-05 12:55 23.09305 50.80782 36723 ft 521 kts 101°
2026-05-05 12:55 23.08105 50.88538 36719 ft 521 kts 101°
2026-05-05 12:56 23.06902 50.96296 36719 ft 521 kts 101°
2026-05-05 12:56 23.05696 51.04044 36720 ft 521 kts 101°
2026-05-05 12:57 23.04493 51.11747 36719 ft 521 kts 101°
2026-05-05 12:57 23.03277 51.19508 36719 ft 521 kts 101°
2026-05-05 12:58 23.02059 51.27256 36719 ft 521 kts 102°
2026-05-05 12:58 23.00838 51.34999 36723 ft 520 kts 102°
2026-05-05 12:59 22.99613 51.42738 36717 ft 520 kts 102°
2026-05-05 12:59 22.98385 51.50476 36717 ft 520 kts 102°
2026-05-05 13:00 22.96545 51.62022 36715 ft 520 kts 102°
2026-05-05 13:01 22.94070 51.77466 36720 ft 519 kts 102°
2026-05-05 13:01 22.92825 51.85192 36721 ft 519 kts 102°
2026-05-05 13:02 22.91578 51.92913 36721 ft 519 kts 102°
2026-05-05 13:02 22.90327 52.00629 36717 ft 519 kts 102°
2026-05-05 13:03 22.89073 52.08346 36718 ft 519 kts 102°
2026-05-05 13:03 22.87816 52.16055 36720 ft 520 kts 102°
2026-05-05 13:04 22.86561 52.23725 36715 ft 520 kts 102°
2026-05-05 13:04 22.85295 52.31440 36718 ft 520 kts 102°
2026-05-05 13:05 22.84025 52.39160 36720 ft 520 kts 102°
2026-05-05 13:05 22.82755 52.46884 36710 ft 520 kts 101°
2026-05-05 13:06 22.82136 52.54705 36722 ft 522 kts 92°
2026-05-05 13:06 22.81990 52.62574 36714 ft 522 kts 92°
2026-05-05 13:07 22.81848 52.70443 36715 ft 522 kts 92°
2026-05-05 13:07 22.81660 52.78320 36713 ft 522 kts 92°
2026-05-05 13:08 22.81447 52.86194 36712 ft 522 kts 92°
2026-05-05 13:08 22.81231 52.94013 36708 ft 523 kts 92°
2026-05-05 13:09 22.81012 53.01891 36711 ft 523 kts 92°
2026-05-05 13:09 22.80791 53.09780 36712 ft 523 kts 92°
2026-05-05 13:10 22.80567 53.17651 36711 ft 523 kts 93°
2026-05-05 13:10 22.80338 53.25526 36713 ft 522 kts 92°
2026-05-05 13:11 22.80105 53.33398 36707 ft 522 kts 92°
2026-05-05 13:11 22.79869 53.41267 36711 ft 522 kts 93°
2026-05-05 13:12 22.79630 53.49078 36715 ft 522 kts 93°
2026-05-05 13:12 22.79385 53.56983 36709 ft 521 kts 93°
2026-05-05 13:13 22.79140 53.64784 36713 ft 521 kts 93°
2026-05-05 13:13 22.78889 53.72628 36704 ft 521 kts 93°
2026-05-05 13:14 22.78633 53.80472 36705 ft 521 kts 93°
2026-05-05 13:14 22.78375 53.88315 36714 ft 520 kts 93°
2026-05-05 13:15 22.78147 53.96157 36707 ft 521 kts 90°
2026-05-05 13:15 22.78802 54.03977 36703 ft 521 kts 79°
2026-05-05 13:16 22.80363 54.11603 36705 ft 521 kts 77°
2026-05-05 13:16 22.81991 54.19261 36709 ft 522 kts 77°
2026-05-05 13:17 22.83575 54.26938 36711 ft 522 kts 77°
2026-05-05 13:17 22.85129 54.34634 36708 ft 523 kts 78°
2026-05-05 13:18 22.86674 54.42333 36706 ft 523 kts 78°
2026-05-05 13:18 22.87969 54.48794 36709 ft 523 kts 78°
2026-05-05 13:19 22.89502 54.56448 36709 ft 523 kts 78°
2026-05-05 13:19 22.91043 54.64155 36709 ft 523 kts 78°
2026-05-05 13:20 22.92579 54.71863 36710 ft 523 kts 78°
2026-05-05 13:20 22.94112 54.79578 36706 ft 523 kts 78°
2026-05-05 13:21 22.95643 54.87298 36705 ft 523 kts 78°
2026-05-05 13:21 22.97169 54.95018 36702 ft 523 kts 78°
2026-05-05 13:22 22.98689 55.02728 36710 ft 523 kts 78°
2026-05-05 13:22 23.00206 55.10444 36713 ft 523 kts 78°
2026-05-05 13:23 23.01962 55.18077 36701 ft 519 kts 65°
2026-05-05 13:23 23.03812 55.21409 36725 ft 515 kts 48°
2026-05-05 13:23 23.06378 55.24089 36737 ft 511 kts 34°
2026-05-05 13:24 23.09382 55.26122 36715 ft 507 kts 21°
2026-05-05 13:24 23.12692 55.27332 36740 ft 499 kts 11°
2026-05-05 13:24 23.19417 55.29143 36731 ft 503 kts 11°
2026-05-05 13:25 23.26251 55.31041 36198 ft 507 kts 11°
2026-05-05 13:25 23.29645 55.32028 35698 ft 502 kts 12°
2026-05-05 13:25 23.33001 55.33017 35079 ft 499 kts 12°
2026-05-05 13:26 23.36356 55.34009 34341 ft 499 kts 12°
2026-05-05 13:26 23.39709 55.34999 33628 ft 499 kts 12°
2026-05-05 13:26 23.43099 55.35997 32821 ft 498 kts 12°
2026-05-05 13:26 23.46402 55.36969 31835 ft 501 kts 12°
2026-05-05 13:27 23.49786 55.37963 30755 ft 506 kts 12°
2026-05-05 13:27 23.53200 55.38969 29769 ft 510 kts 12°
2026-05-05 13:27 23.56617 55.39982 28947 ft 506 kts 12°
2026-05-05 13:27 23.59985 55.40985 28323 ft 497 kts 12°
2026-05-05 13:28 23.63317 55.41979 27389 ft 497 kts 12°
2026-05-05 13:28 23.66654 55.42972 26444 ft 497 kts 13°
2026-05-05 13:28 23.69935 55.43950 25518 ft 482 kts 13°
2026-05-05 13:28 23.73132 55.44904 24625 ft 469 kts 13°
2026-05-05 13:29 23.76236 55.45829 23763 ft 457 kts 13°
2026-05-05 13:29 23.79272 55.46733 23042 ft 448 kts 13°
2026-05-05 13:29 23.82270 55.47626 22378 ft 445 kts 13°
2026-05-05 13:29 23.85241 55.48511 21764 ft 441 kts 13°
2026-05-05 13:30 23.88186 55.49388 21164 ft 437 kts 14°
2026-05-05 13:30 23.91106 55.50256 20585 ft 433 kts 14°
2026-05-05 13:30 23.94003 55.51117 20005 ft 429 kts 14°
2026-05-05 13:30 23.96871 55.51969 19435 ft 426 kts 14°
2026-05-05 13:31 23.99725 55.52819 18850 ft 424 kts 14°
2026-05-05 13:31 24.02562 55.53663 18232 ft 422 kts 14°
2026-05-05 13:31 24.05400 55.54501 17515 ft 422 kts 14°
2026-05-05 13:31 24.08187 55.55325 16904 ft 418 kts 14°
2026-05-05 13:32 24.10990 55.56152 16318 ft 414 kts 14°
2026-05-05 13:32 24.13758 55.56972 15755 ft 411 kts 14°
2026-05-05 13:32 24.16503 55.57784 15205 ft 407 kts 14°
2026-05-05 13:32 24.19232 55.58350 14629 ft 395 kts
2026-05-05 13:33 24.21921 55.57910 14097 ft 391 kts 340°
2026-05-05 13:33 24.24298 55.56545 13729 ft 383 kts 323°
2026-05-05 13:33 24.26196 55.54533 13173 ft 380 kts 308°
2026-05-05 13:33 24.27591 55.52091 12702 ft 375 kts 293°
2026-05-05 13:34 24.28296 55.49410 12566 ft 358 kts 281°
2026-05-05 13:34 24.28754 55.46768 12396 ft 347 kts 280°
2026-05-05 13:34 24.29197 55.44203 12237 ft 337 kts 281°
2026-05-05 13:34 24.29649 55.41722 12094 ft 327 kts 281°
2026-05-05 13:35 24.30098 55.39345 11951 ft 318 kts 282°
2026-05-05 13:35 24.30546 55.37007 11817 ft 309 kts 282°
2026-05-05 13:35 24.31064 55.34731 11513 ft 306 kts 287°
2026-05-05 13:35 24.31742 55.32521 11165 ft 306 kts 289°
2026-05-05 13:36 24.32451 55.30327 10815 ft 305 kts 289°
2026-05-05 13:36 24.33155 55.28130 10458 ft 306 kts 289°
2026-05-05 13:36 24.33847 55.25932 10213 ft 302 kts 289°
2026-05-05 13:36 24.34516 55.23773 10029 ft 296 kts 289°
2026-05-05 13:37 24.35176 55.21626 9686 ft 297 kts 288°
2026-05-05 13:37 24.35834 55.19475 9328 ft 298 kts 288°
2026-05-05 13:37 24.36487 55.17328 9043 ft 293 kts 286°
2026-05-05 13:37 24.36670 55.15136 8644 ft 292 kts 256°
2026-05-05 13:38 24.35780 55.13204 8331 ft 281 kts 225°
2026-05-05 13:38 24.34375 55.11744 7853 ft 278 kts 223°
2026-05-05 13:38 24.32991 55.10249 7241 ft 282 kts 224°
2026-05-05 13:38 24.31663 55.08782 6603 ft 287 kts 225°
2026-05-05 13:39 24.30253 55.07220 5943 ft 290 kts 225°
2026-05-05 13:39 24.28823 55.05636 5282 ft 296 kts 225°
2026-05-05 13:39 24.27389 55.04050 4840 ft 288 kts 226°
2026-05-05 13:39 24.26025 55.02543 4510 ft 275 kts 226°
2026-05-05 13:40 24.24729 55.01112 4386 ft 255 kts 226°
2026-05-05 13:40 24.23538 54.99763 4199 ft 236 kts 233°
2026-05-05 13:40 24.22930 54.98211 4049 ft 213 kts 268°
2026-05-05 13:40 24.23038 54.96609 4031 ft 214 kts 286°
2026-05-05 13:41 24.23626 54.95088 4035 ft 220 kts 301°
2026-05-05 13:41 24.24425 54.93612 3867 ft 230 kts 302°
2026-05-05 13:41 24.25241 54.92134 3641 ft 219 kts 302°
2026-05-05 13:41 24.25998 54.90747 3446 ft 206 kts 302°
2026-05-05 13:42 24.26703 54.89445 3328 ft 195 kts 302°
2026-05-05 13:42 24.27391 54.88165 3221 ft 194 kts 302°
2026-05-05 13:42 24.28072 54.86894 3148 ft 192 kts 302°
2026-05-05 13:42 24.28722 54.85678 3081 ft 178 kts 303°
2026-05-05 13:43 24.29424 54.84616 3013 ft 167 kts 310°
2026-05-05 13:43 24.30153 54.83638 3006 ft 166 kts 310°
2026-05-05 13:43 24.30878 54.82641 3012 ft 168 kts 310°
2026-05-05 13:43 24.31604 54.81631 3022 ft 174 kts 310°
2026-05-05 13:44 24.32351 54.80579 3003 ft 176 kts 309°
2026-05-05 13:44 24.33109 54.79510 2760 ft 176 kts 309°
2026-05-05 13:44 24.33845 54.78470 2568 ft 169 kts 310°
2026-05-05 13:44 24.34551 54.77471 2340 ft 163 kts 310°
2026-05-05 13:45 24.35249 54.76488 2183 ft 162 kts 310°
2026-05-05 13:45 24.35908 54.75554 1964 ft 146 kts 309°
2026-05-05 13:45 24.36534 54.74676 1780 ft 147 kts 310°
2026-05-05 13:45 24.37165 54.73781 1595 ft 149 kts 309°
2026-05-05 13:46 24.37791 54.72902 1408 ft 145 kts 309°
2026-05-05 13:46 24.38398 54.72041 1236 ft 142 kts 310°
2026-05-05 13:46 24.39002 54.71188 1066 ft 143 kts 311°
2026-05-05 13:46 24.39605 54.70317 808 ft 143 kts 308°
2026-05-05 13:47 24.40214 54.69488 646 ft 136 kts 306°
2026-05-05 13:47 24.40800 54.68651 493 ft 140 kts 308°
2026-05-05 13:47 24.41396 54.67807 374 ft 141 kts 309°
2026-05-05 13:47 24.41993 54.66964 211 ft 136 kts 308°
2026-05-05 13:48 24.42554 54.66166 88 ft 125 kts 311°
2026-05-05 13:48 24.43001 54.65543 87 ft 82 kts 308°
2026-05-05 13:48 24.43312 54.65108 87 ft 70 kts 308°
2026-05-05 13:48 24.43595 54.64720 83 ft 62 kts 309°
2026-05-05 13:49 24.43828 54.64471 87 ft 23 kts 336°
2026-05-05 13:49 24.43947 54.64415 86 ft 16 kts 335°
2026-05-05 13:49 24.44046 54.64366 84 ft 15 kts 328°
2026-05-05 13:49 24.44116 54.64277 85 ft 16 kts 315°
2026-05-05 13:50 24.44185 54.64186 86 ft 16 kts 308°
2026-05-05 13:50 24.44252 54.64093 86 ft 16 kts 308°
2026-05-05 13:50 24.44318 54.64000 86 ft 16 kts 308°
2026-05-05 13:50 24.44387 54.63908 86 ft 15 kts 320°
2026-05-05 13:51 24.44455 54.63928 84 ft 11 kts 71°
2026-05-05 13:51 24.44435 54.64010 85 ft 12 kts 129°
2026-05-05 13:51 24.44381 54.64081 84 ft 12 kts 129°
2026-05-05 13:51 24.44317 54.64162 86 ft 18 kts 130°
2026-05-05 13:52 24.44215 54.64306 86 ft 27 kts 128°
2026-05-05 13:52 24.44084 54.64491 87 ft 35 kts 128°
2026-05-05 13:52 24.43964 54.64660 85 ft 13 kts 127°
2026-05-05 13:52 24.43970 54.64754 85 ft 14 kts 46°
2026-05-05 13:53 24.44053 54.64755 83 ft 14 kts 313°
2026-05-05 13:53 24.44116 54.64670 84 ft 15 kts 309°
2026-05-05 13:53 24.44197 54.64559 86 ft 20 kts 306°
2026-05-05 13:53 24.44291 54.64513 85 ft 16 kts 19°
2026-05-05 13:54 24.44379 54.64587 84 ft 16 kts 39°
2026-05-05 13:54 24.44465 54.64662 85 ft 16 kts 38°
2026-05-05 13:54 24.44548 54.64720 84 ft 13 kts
2026-05-05 13:54 24.44623 54.64665 85 ft 14 kts 311°
2026-05-05 13:55 24.44686 54.64588 84 ft 14 kts 318°
2026-05-05 13:55 24.44767 54.64535 81 ft 14 kts 336°
2026-05-05 13:55 24.44858 54.64507 83 ft 14 kts 357°
2026-05-05 13:55 24.44923 54.64551 85 ft 10 kts 69°
2026-05-05 13:56 24.44922 54.64613 83 ft 6 kts 90°
2026-05-05 13:56 24.44953 54.64640 83 ft 6 kts 19°
2026-05-05 13:56 24.44984 54.64650 84 ft 4 kts 18°
2026-05-05 13:56 24.44996 54.64653 83 ft 1 kts 14°
2026-05-05 13:57 24.45004 54.64655 83 ft 1 kts 13°
2026-05-05 13:57 24.45007 54.64656 83 ft 0 kts 13°